Location: Mahannah Oil Field
(37.4664°N, 96.6003°W)
Time: 02:43:21
(UTC+00:00)

Tiros 1 despin weight - Pass Details

Date: 30 January 2021
Orbit: 593 x 642 km, 48.2° (Epoch: 02 March)

Event Time Altitude Azimuth Distance (km) Brightness Sun altitude
Rises 23:20:03 0° 306° (NW) 2,874 ? 4.4°
Reaches altitude 10° 23:22:27 10° 312° (NW) 1,960 ? 4.0°
Maximum altitude 23:26:47 47° 27° (NNE) 803 ? 3.2°
Drops below altitude 10° 23:31:03 10° 101° (ESE) 1,929 ? 2.4°
Sets 23:33:24 0° 108° (ESE) 2,824 ? 2.0°
